Flag Weather past 2 weeks in Vöcklabruck, Upper Austria, Austria

Now
39 °F

Fog.


Feels Like: 39 °F
Forecast: 36 / 46 °F
Wind: 1 mph from East

Location: Kremsmuenster

Current Time: Nov 24, 2014 at 7:39:06 AM

Latest Report: Nov 24, 2014 at 7:00 AM


Visibility: 2 mi

Pressure: 30.27 "Hg

Humidity: 95%

Dew point: 38 °F

Location of VöcklabruckLocation

Historic Weather in Vöcklabruck — Graph

°F

Vöcklabruck temperature yesterday

Maximum temperature yesterday: 41 °F (at 9:00 PM)
Minimum temperature yesterday: 37 °F (at 12:00 AM)
Average temperature yesterday: 39 °F

Past Weeks' High & Low Weather Summary

 TemperatureHumidityPressure
High63 °F (Nov 12, 3:00 PM)100% (Nov 9, 9:00 PM)30.34 "Hg (Nov 9, 9:00 PM)
Low36 °F (Nov 22, 9:00 PM)62% (Nov 16, 1:00 PM)29.47 "Hg (Nov 16, 2:00 AM)
Average45 °F90%29.95 "Hg
* Reported Nov 9 6:00 AM — Nov 24 6:00 AM, Vöcklabruck, Weather by CustomWeather, © 2014

Note: Actual official high and low records may vary slightly from our data, if they occured in-between our weather recording intervals... More about our weather records

Advertising

Vöcklabruck weather history for previous 24 hours

 ConditionsComfort  
Time TempWeatherWind HumidityBarometerVisibility
6:00 AM
Nov 24
39 °FChilly.2 mph95%30.27 "HgN/A
5:00 AM39 °FChilly.2 mph94%30.26 "HgN/A
4:00 AM40 °FChilly.1 mph94%30.26 "HgN/A
3:00 AM40 °FChilly.2 mph93%30.27 "HgN/A
2:00 AM40 °FQuite cool.2 mph93%30.28 "HgN/A
1:00 AM40 °FQuite cool.2 mph93%30.28 "HgN/A
12:00 AM41 °FQuite cool.3 mph92%30.29 "HgN/A
11:00 PM
Nov 23
41 °FQuite cool.3 mph92%30.29 "HgN/A
10:00 PM41 °FQuite cool.5 mph92%30.29 "HgN/A
9:00 PM41 °FQuite cool.3 mph91%30.29 "HgN/A
8:00 PM41 °FQuite cool.3 mph92%30.29 "HgN/A
7:00 PM41 °FFog.3 mph92%30.29 "Hg1 mi
6:00 PM41 °FQuite cool.6 mph91%30.29 "HgN/A
5:00 PM41 °FQuite cool.6 mph92%30.29 "HgN/A
4:00 PM40 °FFog.6 mph94%30.29 "Hg1 mi
3:00 PM40 °FQuite cool.7 mph94%30.30 "HgN/A
2:00 PM40 °FQuite cool.6 mph94%30.31 "HgN/A
1:00 PM40 °FChilly.6 mph95%30.32 "HgN/A
12:00 PM40 °FChilly.5 mph95%30.32 "HgN/A
11:00 AM39 °FChilly.3 mph96%30.34 "HgN/A
10:00 AM38 °FFog.3 mph97%30.34 "Hg1 mi
9:00 AM38 °FChilly.3 mph97%30.33 "HgN/A
8:00 AM38 °FChilly.3 mph97%30.33 "HgN/A
7:00 AM38 °FFog.5 mph98%30.32 "Hg1 mi
Weather by CustomWeather, © 2014

See weather overviewHow to use our weather pages